Date,TemperatureHighF,TemperatureAvgF,TemperatureLowF,DewpointHighF,DewpointAvgF,DewpointLowF,HumidityHigh,HumidityAvg,HumidityLow,PressureMaxIn,PressureMinIn,WindSpeedMaxMPH,WindSpeedAvgMPH,GustSpeedMaxMPH,PrecipitationSumIn
2013-2-1,37,28,20,-100,-100,-100,0,0,100,0.00,40.00,0,-999,0,0.00
2013-2-2,42,28,17,-100,-100,-100,0,0,100,0.00,40.00,0,-999,0,0.00
2013-2-3,41,30,17,-100,-100,-100,0,0,100,0.00,40.00,0,-999,0,0.00
2013-2-4,42,30,16,-100,-100,-100,0,0,100,0.00,40.00,0,-999,0,0.00
2013-2-5,48,32,19,-100,-100,-100,0,0,100,0.00,40.00,0,-999,0,0.00
2013-2-6,44,33,25,-100,-100,-100,0,0,100,0.00,40.00,0,-999,0,0.00
2013-2-7,38,28,18,-100,-100,-100,0,0,100,0.00,40.00,0,-999,0,0.00
2013-2-8,40,27,16,-100,-100,-100,0,0,100,0.00,40.00,0,-999,0,0.00
2013-2-9,36,22,14,-100,-100,-100,0,0,100,0.00,40.00,0,-999,0,0.01
2013-2-10,23,16,7,-100,-100,-100,0,0,100,0.00,40.00,0,-999,0,0.01
2013-2-11,24,17,12,-100,-100,-100,0,0,100,0.00,40.00,0,-999,0,0.01
2013-2-12,26,12,1,-100,-100,-100,0,0,100,0.00,40.00,0,-999,0,0.01
2013-2-13,36,22,6,-100,-100,-100,0,0,100,0.00,40.00,0,-999,0,0.00
2013-2-14,33,20,10,-100,-100,-100,0,0,100,0.00,40.00,0,-999,0,0.00
2013-2-15,27,19,9,-100,-100,-100,0,0,100,0.00,40.00,0,-999,0,0.00
2013-2-16,39,26,11,-100,-100,-100,0,0,100,0.00,40.00,0,-999,0,0.00
2013-2-17,43,31,16,-100,-100,-100,0,0,100,0.00,40.00,0,-999,0,0.00
2013-2-18,30,24,12,-100,-100,-100,0,0,100,0.00,40.00,0,-999,0,0.00
2013-2-19,41,25,8,-100,-100,-100,0,0,100,0.00,40.00,0,-999,0,0.00
2013-2-20,31,23,12,-100,-100,-100,0,0,100,0.00,40.00,0,-999,0,0.04
2013-2-21,27,18,7,-100,-100,-100,0,0,100,0.00,40.00,0,-999,0,0.01
2013-2-22,30,20,14,-100,-100,-100,0,0,100,0.00,40.00,0,-999,0,0.01
2013-2-23,31,21,11,-100,-100,-100,0,0,100,0.00,40.00,0,-999,0,0.01
2013-2-24,31,22,15,-100,-100,-100,0,0,100,0.00,40.00,0,-999,0,0.00
2013-2-25,27,16,7,-100,-100,-100,0,0,100,0.00,40.00,0,-999,0,0.00
2013-2-26,30,18,8,-100,-100,-100,0,0,100,0.00,40.00,0,-999,0,0.01
2013-2-27,29,12,-3,-100,-100,-100,0,0,100,0.00,40.00,0,-999,0,0.01
2013-2-28,34,19,6,-100,-100,-100,0,0,100,0.00,40.00,0,-999,0,0.00